Date String (YYYY-MM-DD hh:mm:ss) UTC,Instrument flags,Ambient pressure (hPa),Sample flow (lpm),Bypass flow (lpm),Sample temperature (°C),Ambient temperature (°C),ASC tube jacket temperature (°C),LED temperature (°C),Box temperature (°C),Sample RH (%),Span deviation,Mass concentration (μg/m³),Mass concentration (μg/m³),Mass concentration (μg/m³)
DateTimeUTC,F1_M11,P_M11,Q1_M11,Q2_M11,T1_M11,T2_M11,T3_M11,T4_M11,T5_M11,U1_M11,ZSPAN_M11,X0_M11,X2_M11,X1_M11
2021-09-29 01:00:00,,0817.8,5.00,0.00,29.6,28.6,00.0,38.5,31.4,18.6,0001.0,0015.85,0005.31,0004.71
2021-09-29 01:01:00,,0817.8,5.01,0.00,29.6,28.7,00.0,38.5,31.5,18.7,0001.0,0015.61,0005.33,0004.72
2021-09-29 01:02:00,,0817.9,4.98,0.00,29.6,28.5,00.0,38.6,31.4,18.6,0001.2,0015.15,0005.37,0004.73
2021-09-29 01:03:00,,0817.9,5.01,0.00,29.5,26.7,00.0,38.6,31.0,18.9,0001.2,0015.46,0005.34,0004.72
2021-09-29 01:04:00,,0817.9,5.00,0.00,29.4,26.3,00.0,38.5,30.8,19.0,0001.3,0015.60,0005.39,0004.73
2021-09-29 01:05:00,,0818.0,5.00,0.00,29.4,26.6,00.0,38.5,30.9,19.2,0001.3,0015.95,0005.44,0004.73
2021-09-29 01:06:00,,0817.9,4.99,0.00,29.3,27.0,00.0,38.5,31.0,19.3,0001.1,0015.97,0005.46,0004.73
2021-09-29 01:07:00,,0818.0,5.01,0.00,29.3,27.3,00.0,38.5,31.0,19.2,0001.3,0016.06,0005.50,0004.73
2021-09-29 01:08:00,,0818.0,4.99,0.00,29.4,27.7,00.0,38.5,31.1,19.1,0001.5,0015.17,0005.49,0004.73
2021-09-29 01:09:00,,0818.0,5.01,0.00,29.4,27.9,00.0,38.5,31.2,18.9,0001.9,0013.49,0005.52,0004.75
2021-09-29 01:10:00,,0818.0,4.99,0.00,29.4,28.2,00.0,38.5,31.2,19.0,0001.7,0013.47,0005.52,0004.75
2021-09-29 01:11:00,,0818.0,5.01,0.00,29.5,28.3,00.0,38.5,31.3,18.9,0002.0,0013.40,0005.51,0004.77
2021-09-29 01:12:00,,0818.0,4.99,0.00,29.5,28.5,00.0,38.5,31.4,19.2,0002.0,0014.08,0005.53,0004.77
2021-09-29 01:13:00,,0818.0,5.01,0.00,29.6,28.6,00.0,38.5,31.4,19.6,0001.9,0013.58,0005.48,0004.77
2021-09-29 01:14:00,,0818.0,5.01,0.00,29.6,28.7,00.0,38.6,31.5,19.6,0001.9,0013.16,0005.45,0004.76
2021-09-29 01:15:00,,0818.1,4.99,0.00,29.6,28.8,00.0,38.6,31.5,19.6,0002.0,0013.65,0005.40,0004.75
2021-09-29 01:16:00,,0818.1,5.01,0.00,29.7,28.3,00.0,38.6,31.4,19.6,0002.0,0013.49,0005.38,0004.74
2021-09-29 01:17:00,,0818.1,5.01,0.00,29.5,26.5,00.0,38.6,30.9,19.7,0002.1,0013.59,0005.44,0004.75
2021-09-29 01:18:00,,0818.1,5.00,0.00,29.4,26.2,00.0,38.6,30.8,19.9,0002.2,0013.94,0005.50,0004.76
2021-09-29 01:19:00,,0818.0,4.99,0.00,29.3,26.5,00.0,38.5,30.9,20.3,0002.4,0014.08,0005.55,0004.76
2021-09-29 01:20:00,,0818.0,5.00,0.00,29.3,26.9,00.0,38.5,30.9,20.7,0002.3,0014.42,0005.54,0004.79
2021-09-29 01:21:00,,0818.1,5.00,0.00,29.3,27.3,00.0,38.5,31.0,20.8,0002.5,0014.02,0005.57,0004.81
2021-09-29 01:22:00,,0818.1,5.00,0.00,29.3,27.6,00.0,38.5,31.1,21.1,0002.5,0013.76,0005.58,0004.82
2021-09-29 01:23:00,,0818.1,5.00,0.00,29.4,27.9,00.0,38.5,31.2,21.5,0002.4,0013.74,0005.55,0004.83
2021-09-29 01:24:00,,0818.1,5.01,0.00,29.4,28.1,00.0,38.5,31.2,21.3,0002.4,0013.39,0005.54,0004.83
2021-09-29 01:25:00,,0818.1,4.99,0.00,29.4,28.2,00.0,38.5,31.3,21.0,0002.4,0013.48,0005.55,0004.86
2021-09-29 01:26:00,,0818.2,4.99,0.00,29.5,28.4,00.0,38.5,31.3,20.7,0002.3,0013.87,0005.62,0004.88
2021-09-29 01:27:00,,0818.2,5.01,0.00,29.5,28.5,00.0,38.5,31.4,20.3,0002.3,0014.10,0005.69,0004.93
2021-09-29 01:28:00,,0818.2,5.00,0.00,29.5,28.6,00.0,38.5,31.4,20.1,0002.2,0013.46,0005.67,0004.95
2021-09-29 01:29:00,,0818.2,5.01,0.00,29.6,28.7,00.0,38.6,31.4,20.0,0002.3,0012.85,0005.61,0004.97
2021-09-29 01:30:00,,0818.2,5.00,0.00,29.6,28.7,00.0,38.6,31.5,19.8,0002.3,0012.78,0005.61,0005.00
2021-09-29 01:31:00,,0818.2,5.00,0.00,29.6,27.1,00.0,38.6,31.0,19.6,0002.4,0012.54,0005.62,0005.02
2021-09-29 01:32:00,,0818.2,4.99,0.00,29.4,25.3,00.0,38.5,30.6,19.6,0002.4,0013.21,0005.66,0005.05
2021-09-29 01:33:00,,0818.2,5.00,0.00,29.2,25.3,00.0,38.5,30.5,19.7,0002.2,0013.24,0005.69,0005.07
2021-09-29 01:34:00,,0818.2,5.00,0.00,29.2,25.8,00.0,38.5,30.7,19.8,0002.2,0012.78,0005.71,0005.10
2021-09-29 01:35:00,,0818.3,5.01,0.00,29.1,26.3,00.0,38.4,30.8,19.7,0002.3,0012.42,0005.74,0005.14
2021-09-29 01:36:00,,0818.4,5.00,0.00,29.1,26.7,00.0,38.4,30.8,19.7,0002.1,0012.63,0005.78,0005.16
2021-09-29 01:37:00,,0818.4,4.99,0.00,29.2,27.1,00.0,38.3,30.9,19.7,0002.0,0011.78,0005.77,0005.17
2021-09-29 01:38:00,,0818.4,5.01,0.00,29.2,27.5,00.0,38.3,31.0,19.7,0001.9,0011.37,0005.76,0005.17
2021-09-29 01:39:00,,0818.4,4.99,0.00,29.2,27.7,00.0,38.3,31.0,19.7,0001.9,0011.81,0005.79,0005.19
2021-09-29 01:40:00,,0818.4,5.00,0.00,29.3,27.9,00.0,38.3,31.1,19.5,0002.2,0011.83,0005.80,0005.20
2021-09-29 01:41:00,,0818.4,5.00,0.00,29.3,28.1,00.0,38.3,31.1,19.4,0002.0,0011.91,0005.84,0005.21
2021-09-29 01:42:00,,0818.4,5.00,0.00,29.3,28.3,00.0,38.4,31.2,19.2,0001.8,0011.97,0005.88,0005.21
2021-09-29 01:43:00,,0818.4,5.01,0.00,29.4,28.4,00.0,38.4,31.2,19.2,0001.8,0011.70,0005.87,0005.22
2021-09-29 01:44:00,,0818.4,5.00,0.00,29.4,28.5,00.0,38.4,31.3,19.2,0002.0,0012.16,0005.89,0005.23
2021-09-29 01:45:00,,0818.4,4.99,0.00,29.5,28.6,00.0,38.4,31.3,19.0,0002.0,0012.62,0005.92,0005.24
2021-09-29 01:46:00,,0818.4,5.00,0.00,29.5,28.7,00.0,38.4,31.4,18.6,0002.1,0012.60,0005.96,0005.29
2021-09-29 01:47:00,,0818.4,5.00,0.00,29.6,28.7,00.0,38.5,31.4,18.6,0002.0,0011.91,0005.97,0005.32
2021-09-29 01:48:00,,0818.4,4.99,0.00,29.6,28.8,00.0,38.5,31.5,18.8,0002.1,0012.09,0005.98,0005.35
2021-09-29 01:49:00,,0818.4,5.00,0.00,29.6,28.9,00.0,38.5,31.5,18.8,0002.3,0012.24,0006.00,0005.39
2021-09-29 01:50:00,,0818.4,5.00,0.00,29.6,27.6,00.0,38.5,31.2,18.8,0002.3,0011.59,0005.97,0005.40
2021-09-29 01:51:00,,0818.4,4.99,0.00,29.4,26.2,00.0,38.5,30.8,19.0,0002.5,0011.53,0005.99,0005.43
2021-09-29 01:52:00,,0818.4,5.01,0.00,29.4,26.3,00.0,38.5,30.8,19.0,0002.6,0011.53,0005.98,0005.45
2021-09-29 01:53:00,,0818.4,5.01,0.00,29.3,26.6,00.0,38.5,30.9,19.1,0002.5,0011.47,0005.96,0005.46
2021-09-29 01:54:00,,0818.4,4.99,0.00,29.3,27.0,00.0,38.4,31.0,19.1,0002.4,0011.08,0005.96,0005.49
2021-09-29 01:55:00,,0818.4,5.00,0.00,29.3,27.4,00.0,38.4,31.0,19.1,0002.4,0011.22,0005.96,0005.52
2021-09-29 01:56:00,,0818.4,5.01,0.00,29.3,27.7,00.0,38.4,31.1,19.1,0002.3,0011.18,0005.97,0005.55
2021-09-29 01:57:00,,0818.4,4.99,0.00,29.4,27.9,00.0,38.4,31.2,19.1,0002.0,0012.09,0006.01,0005.58
2021-09-29 01:58:00,,0818.4,5.01,0.00,29.4,28.1,00.0,38.4,31.2,19.1,0002.0,0012.28,0006.06,0005.59
2021-09-29 01:59:00,,0818.4,4.99,0.00,29.4,28.3,00.0,38.5,31.3,19.1,0001.8,0012.86,0006.13,0005.61
